1998-067PB (43553 NORAD) Tracking and Keplerian Element Data

This shows tracking and keplerian element data for the satellite.

Feedback or suggestion? Click here.




ElementValue
Catalog43553
Name1998-067PB
Epoch Orbit1889
Epoch Day315.66456829
Epoch Year2018
RAAN2.273
Inclination51.6405
Eccentricity0.0007424
Argument of Perigee45.5372
Mean Anonmoly314.6225
Mean Motion15.56546528
Decay Rate8.921E-05
L11 43553U 98067PB 18315.66456829 .00008921 00000-0 12990-3 0 9998
L22 43553 51.6405 2.2730 0007424 45.5372 314.6225 15.56546528 18896

Live tracking and technical data element details for 1998-067PB (NORAD 43553). 1998-067PB can be tracked NOW for your location showing map with azimuth and elevation plus other details from your city location.

Track the satellite on the map from your city or location and see movement details for azimuth, elevation, latitude, longitude, range, height, and movement on the map or in text.







IsCatalogInMostPopularTable: catalog: 43553, numindb: 47
Update: records affected: 1



GetName: 43553 1998-067PB

Hit Count: updated at: Tue, 13 Nov 2018 06:42:41 GMT